Simultaneous Nadir Overpasses (SNOs) Predictions

Prediction of SNOs between GOES-16 and METOP-C Satellite Orbit:

Table of predicted SNOs for the next 14.0 days since TLE Epoch: 8/7/2020
Index Date Time (GOES-16) GOES-16 Lat,Lon METOP-C Lat,Lon Distance(km) Time Diff (sec)
1 08/08/2020 02:37:24 0.02, -75.20 -0.16, -76.12 104.24 80
2 08/09/2020 02:14:03 0.03, -75.21 0.92, -71.12 465.73 80
3 08/10/2020 14:35:35 -0.02, -75.25 0.09, -75.68 50.04 80
4 08/13/2020 02:33:54 0.02, -75.25 0.00, -75.28 3.60 80
5 08/15/2020 14:29:26 -0.02, -75.30 -0.14, -74.85 51.65 80
6 08/17/2020 02:51:06 0.01, -75.30 -0.90, -79.44 471.75 80
7 08/18/2020 02:27:46 0.02, -75.31 0.23, -74.45 98.76 80
8 08/19/2020 14:49:16 -0.01, -75.36 0.81, -79.00 415.90 80
9 08/20/2020 14:25:57 -0.02, -75.37 -0.33, -74.01 155.05 80
